Location: Cottanello
(42.4000°N, 12.6833°E)
Time: 05:47:34
(UTC+00:00)

Daily predictions for brighter satellites

Satellite Brightness Start Highest point End
(mag) Time Altitude Azimuth Time Altitude Azimuth Time Altitude Azimuth
SJ 16-02 4.3 03:09:58 12° ESE 03:09:58 12° ESE 03:10:22 10° ESE
Cosmos 1844 Rocket 4.4 03:28:37 23° SSE 03:28:37 23° SSE 03:30:36 10° SSE
Cosmos 2278 Rocket 4.4 03:28:26 14° NNE 03:31:26 20° NE 03:35:34 10° E
Cosmos 2322 4.3 03:39:11 52° NE 03:39:11 52° NE 03:43:32 10° NNE
Lacrosse 5 rocket 4.2 03:41:48 11° NE 03:41:48 11° NE 03:42:06 10° NE
Cosmos 2333 Rocket 2.5 03:43:03 63° ENE 03:43:03 63° ENE 03:48:07 10° NNE
Cosmos 2219 Rocket 2.4 03:48:15 67° ESE 03:48:22 67° ESE 03:53:55 10° NNE
COSMOS 2428 2.8 04:00:09 41° S 04:02:10 73° ESE 04:07:51 10° NNE
Meteor 1-22 Rocket 4.3 04:04:56 65° NNW 04:04:56 65° NNW 04:10:08 10° N
SL-8 R/B 4.4 04:05:06 46° NNE 04:05:06 46° NNE 04:09:26 10° E
deb Chang Zheng 4 4.4 04:03:40 10° NNE 04:07:48 48° E 04:11:53 10° S
SL-16 R/B 4.5 04:14:31 10° N 04:14:31 10° N 04:14:36 10° N
GEOS 3 Rocket 4.0 04:07:23 10° SE 04:12:40 64° NE 04:14:40 38° NNW
Cosmos 468 Rocket 4.1 04:09:23 15° S 04:13:47 73° ESE 04:19:04 10° NNE
Cosmos 2360 Rocket 3.8 04:20:05 20° NNW 04:20:05 20° NNW 04:22:19 10° N
Cosmos 2322 Rocket 4.3 04:20:46 12° N 04:20:46 12° N 04:21:17 10° N
Cosmos 1937 Rocket 4.4 04:17:36 14° N 04:21:57 47° ENE 04:26:59 10° SE
GPS 2-04 Rocket1 4.3 04:22:29 25° S 04:22:29 25° S 04:25:29 10° SE
Cosmos 1892 Rocket 3.5 04:25:07 47° N 04:26:22 86° E 04:30:45 10° S
Cosmos 1953 3.7 04:22:41 10° SSE 04:26:25 39° E 04:30:08 10° NNE
Envisat 4.4 04:23:03 10° NNE 04:27:48 38° E 04:32:31 10° SSE
IRIDIUM 104 4.2 04:24:42 10° S 04:29:52 68° W 04:35:06 10° N
Cosmos 1461 3.3 04:28:33 24° SSW 04:31:18 74° ESE 04:36:04 10° NE
Cosmos 1513 Rocket 4.5 04:26:24 10° S 04:32:45 89° E 04:39:03 10° N
Meteor 1-24 Rocket 4.0 04:35:52 41° WSW 04:35:52 41° WSW 04:40:39 10° SSW
SJ-12 4.4 04:31:50 10° N 04:34:53 44° NNW 04:34:53 44° NNW
NOSS 0 Rocket 4.1 04:31:49 10° SSW 04:37:57 72° ESE 04:44:08 10° NNE
IRIDIUM 114 4.3 04:33:55 10° SSW 04:39:01 56° W 04:44:10 10° N
COSMO-SKYMED 1 2.5 04:35:46 10° S 04:40:04 63° W 04:41:14 44° NW
FALCON 9 DEB 4.2 04:39:14 30° S 04:40:24 42° SE 04:43:38 10° ENE
Cosmos 2084 4.2 04:41:13 36° NNW 04:41:13 36° NNW 04:44:36 10° NNE
Cosmos 1891 Rocket 4.3 04:34:27 10° SSW 04:40:41 78° W 04:46:49 10° N
Cosmos 921 Rocket 2.8 04:38:49 23° SSW 04:41:23 71° WNW 04:45:36 10° NNE
Cosmos 1464 Rocket 3.8 04:37:55 10° S 04:44:03 80° W 04:50:14 10° N
ERS-2 1.9 04:40:30 10° S 04:44:08 74° WSW 04:44:46 57° NW
Meteor PRIRODA 3.4 04:40:51 10° N 04:44:29 80° WNW 04:48:05 10° SSW
ADEOS 3.9 04:40:19 10° N 04:45:10 41° WNW 04:46:24 35° W
SJ 16-02 2.6 04:47:01 24° SW 04:47:01 24° SW 04:49:17 10° SSW
BREEZE-M DEB (TANK) 3.3 04:44:42 25° SSW 04:46:11 49° SE 04:52:42 10° ENE
Meteor 2-10 4.1 04:42:12 10° SSW 04:47:47 59° WNW 04:53:15 10° N
Cosmos 1072 Rocket 4.4 04:42:15 10° SSW 04:48:23 68° W 04:54:40 10° N
BREEZE-M DEB (TANK) 3.4 04:45:04 24° WNW 04:50:41 78° NNE 04:54:09 10° ESE
Cosmos 1726 4.2 04:57:37 14° NNW 04:57:37 14° NNW 04:58:18 10° N
Cosmos 1758 4.0 04:56:37 34° NW 04:56:37 34° NW 04:59:39 10° N
Cosmos 1544 Rocket 3.4 04:55:02 10° SSW 04:59:20 76° W 05:03:40 10° N
Cosmos 540 Rocket 3.4 04:54:16 10° SSW 04:59:22 89° ESE 05:04:32 10° NNE
Atlas Centaur 2 4.4 04:52:43 10° SW 04:59:40 32° SSE 05:06:56 10° ESE
Cosmos 990 Rocket 4.1 04:57:54 23° NW 05:00:47 48° WSW 05:05:42 10° S
CZ-4B R/B 2.9 04:58:14 10° N 05:01:40 43° WNW 05:05:09 10° SW
Meteor 1-21 Rocket 4.2 04:58:54 10° N 05:04:38 85° W 05:10:27 10° S
Okean 1-7 Rocket 3.7 05:01:29 10° NNW 05:05:57 55° W 05:10:20 10° S
MOS 1 Rocket 3.6 05:02:44 10° S 05:07:42 51° W 05:12:24 10° NNW
Lacrosse 4 Rocket 3.4 05:06:26 10° S 05:10:10 32° ESE 05:14:01 10° NE
Cosmos 44 Rocket 3.4 05:05:58 15° NNW 05:10:22 87° ENE 05:15:34 10° SSE
CZ-2C R/B 3.5 05:08:37 10° SSW 05:11:31 19° SSE 05:14:18 10° ESE
SL-16 R/B 3.9 05:07:15 10° S 05:12:20 36° ESE 05:17:28 10° NE
Cosmos 1703 3.3 05:09:53 10° N 05:13:48 78° E 05:17:41 10° SSE
Cosmos 1092 Rocket 4.2 05:08:14 10° N 05:14:22 72° E 05:20:31 10° SSE
BREEZE-M (TANK) 1.6 05:14:06 36° NNW 05:14:39 51° NNE 05:16:33 10° ESE
Cosmos 858 Rocket 4.5 05:10:19 10° NNW 05:15:30 61° WSW 05:20:37 10° S
Cosmos 2278 Rocket 2.2 05:10:25 10° NNW 05:16:05 70° WSW 05:21:42 10° SSE
CZ-4B R/B 4.5 05:10:48 10° NNE 05:16:14 45° E 05:21:34 10° S
Cosmos 1626 Rocket 3.5 05:15:13 10° NNW 05:19:42 75° W 05:24:09 10° S
Cosmos 1340 2.7 05:16:25 10° N 05:20:11 83° E 05:23:56 10° S
Lacrosse 5 rocket 2.1 05:17:26 15° NNW 05:20:23 40° NE 05:23:53 10° ESE
Cosmos 2034 Rocket 4.1 05:14:31 10° SSW 05:20:47 59° W 05:27:06 10° N
Cosmos 1763 Rocket 4.2 05:19:17 10° WSW 05:23:48 30° WNW 05:28:26 10° N
USA 276 4.3 05:23:46 13° SW 05:24:13 13° SW 05:25:44 10° SSW
Cosmos 2237 Rocket 2.2 05:19:58 10° SW 05:25:35 64° WNW 05:31:15 10° NNE
BREEZE-M DEB (TANK) 4.3 05:21:23 10° SSW 05:25:50 31° SE 05:28:01 10° ENE
Cosmos 1455 Rocket 4.0 05:22:55 10° SW 05:26:32 25° WNW 05:30:08 10° NNW
Cosmos 2333 Rocket 3.4 05:25:09 17° WNW 05:27:18 21° NW 05:31:30 10° N
OAO 2 Rocket 4.4 05:23:09 11° WSW 05:27:25 35° S 05:31:53 10° ESE
Cosmos 1898 Rocket 4.2 05:23:31 13° NW 05:27:27 32° W 05:32:00 10° SSW
Cosmos 1943 Rocket 4.0 05:23:22 10° N 05:28:09 27° NE 05:32:56 10° ESE
Cosmos 841 Rocket 3.5 05:23:40 10° SW 05:28:41 54° WNW 05:33:44 10° N
CZ-2C R/B 2.7 05:24:38 10° SSE 05:29:49 79° ENE 05:35:08 10° N
H-2A R/B 3.5 05:26:51 10° NNW 05:30:01 27° WNW 05:33:12 10° SW
CENTAUR R/B 4.3 05:27:05 10° S 05:32:11 35° ESE 05:38:05 10° NE
Nadezhda 4 Rocket 4.1 05:26:29 10° NNW 05:32:22 50° W 05:38:13 10° SSW
Cosmos 2219 Rocket 3.4 05:30:03 15° W 05:32:50 21° NW 05:36:58 10° N
Cosmos 1400 Rocket 2.9 05:31:46 10° SSW 05:35:47 59° WNW 05:39:51 10° N
Cosmos 2098 Rocket 4.3 05:29:32 10° N 05:35:54 63° E 05:40:58 10° SSE
Cosmos 1570 Rocket 4.1 05:31:39 10° SW 05:36:45 56° WNW 05:41:55 10° NNE
SMAP 3.1 05:32:11 10° NNE 05:36:52 88° ESE 05:41:31 10° SSW
SL-19 R/B 4.2 05:32:47 10° N 05:36:55 68° WNW 05:40:26 10° SSW
Cosmos 1634 Rocket 4.0 05:31:50 10° S 05:38:00 87° E 05:44:12 10° N
Cosmos 1328 3.7 05:34:08 10° NNW 05:38:04 75° W 05:41:58 10° S
Cosmos 1689 Rocket 3.7 05:38:50 10° SW 05:40:48 17° W 05:41:45 15° WNW
MOS 1-B 4.3 05:35:20 10° NNE 05:41:08 78° WNW 05:46:53 10° SSW
NOAA 12 4.1 05:35:52 10° NNE 05:41:10 89° W 05:46:28 10° SSW
Cosmos 1758 Rocket 3.9 05:36:44 10° N 05:41:14 74° E 05:45:41 10° SSE
USA 238 DEB 4.4 05:35:10 10° SSW 05:41:30 56° ESE 05:48:08 10° NE
Okean O Rocket 1.9 05:37:14 10° NNE 05:41:36 72° ESE 05:45:56 10° S
USA 238 4.5 05:35:18 10° SSW 05:41:38 56° ESE 05:48:15 10° NE
Spot 2 3.9 05:37:44 10° N 05:41:44 59° WNW 05:45:42 10° SSW
SL-4 R/B 3.0 05:39:12 10° SSW 05:42:51 47° SE 05:46:49 10° ENE
H-2A R/B 2.6 05:40:30 10° N 05:44:57 71° WNW 05:49:27 10° SSW
PSLV R/B 4.4 05:42:07 10° N 05:45:44 35° WNW 05:49:24 10° SW
Cosmos 2297 4.4 05:40:53 10° NNW 05:46:34 56° ENE 05:52:12 10° SE
COSMOS 2428 4.0 05:42:58 10° W 05:47:03 20° NW 05:51:08 10° N
SL-8 R/B 3.8 05:43:04 12° WNW 05:47:32 71° SSW 05:52:19 10° SE
AQUARIUS 4.1 05:43:36 10° N 05:48:06 80° WNW 05:52:35 10° SSW
ATLAS CENTAUR R/B 1.4 05:48:41 10° SSW 05:52:22 72° ESE 05:56:02 10° NE
CORIOLIS 4.1 05:49:17 10° NNE 05:54:40 85° WNW 06:00:00 10° SSW
Cosmos 2208 Rocket 4.3 05:50:05 10° SW 05:55:21 48° WNW 06:00:37 10° N
NOAA 11 4.2 05:52:52 10° NNE 05:58:22 84° WNW 06:03:48 10° SSW
Cosmos 1980 4.3 05:53:16 10° WSW 05:58:23 34° WNW 06:03:31 10° N
Cosmos 1602 Rocket 4.1 05:55:18 10° NNW 05:59:25 37° W 06:03:32 10° SSW
Cosmos 1726 Rocket 4.1 05:55:33 10° S 05:59:48 64° E 06:04:05 10° NNE
Cosmos 1125 Rocket 3.9 05:56:45 10° NNW 06:02:04 69° ENE 06:07:21 10° SSE
Cosmos 1300 2.6 05:58:24 10° SSW 06:02:11 69° W 06:06:00 10° N
Cosmos 1953 3.9 06:00:37 10° WSW 06:02:59 15° WNW 06:05:22 10° NNW
YAOGAN 6 4.1 06:01:30 10° NNW 06:04:00 17° WNW 06:06:28 10° WSW
Envisat 3.9 06:02:26 10° N 06:06:38 27° WNW 06:10:49 10° WSW
